#�ϑ�����,���ϕ���,���ϕ���,�ő啗��,�ő啗����������,�ő�u�ԕ���,�ő�u�ԕ�����������
#(�N����),(m/s)   ,(16����),(m/s)   ,(16����)        ,(m/s)       ,(16����)            
2018/8/23 0:01,2.5,3,2.5,3,3.9,3
2018/8/23 0:02,2.5,3,2.5,3,3.7,3
2018/8/23 0:03,2.5,3,2.6,3,3.6,4
2018/8/23 0:04,2.6,3,2.6,3,3.3,2
2018/8/23 0:05,2.5,3,2.6,3,4.1,4
2018/8/23 0:06,2.6,3,2.6,3,4.1,3
2018/8/23 0:07,2.6,3,2.6,3,4.5,4
2018/8/23 0:08,2.6,2,2.6,3,3.9,2
2018/8/23 0:09,2.6,2,2.6,3,4.1,2
2018/8/23 0:10,2.6,2,2.6,3,3.7,2
2018/8/23 0:11,2.5,2,2.6,3,3.6,3
2018/8/23 0:12,2.5,2,2.6,3,3.7,2
2018/8/23 0:13,2.5,2,2.5,3,3,2
2018/8/23 0:14,2.4,2,2.5,3,3.6,3
2018/8/23 0:15,2.6,2,2.6,3,5.7,2
2018/8/23 0:16,2.6,2,2.7,2,4.7,2
2018/8/23 0:17,2.5,2,2.7,2,3.9,3
2018/8/23 0:18,2.5,2,2.5,2,3.3,3
2018/8/23 0:19,2.4,2,2.5,2,3.5,3
2018/8/23 0:20,2.5,2,2.5,2,3.7,3
2018/8/23 0:21,2.4,2,2.5,2,3.7,3
2018/8/23 0:22,2.5,2,2.5,2,4.8,3
2018/8/23 0:23,2.5,2,2.6,2,4.1,3
2018/8/23 0:24,2.5,3,2.5,2,2.9,2
2018/8/23 0:25,2.3,2,2.5,2,3.3,2
2018/8/23 0:26,2.3,3,2.4,2,3.9,4
2018/8/23 0:27,2.3,2,2.3,3,3,3
2018/8/23 0:28,2.2,3,2.3,3,2.2,3
2018/8/23 0:29,2.2,3,2.2,3,2.7,4
2018/8/23 0:30,2.1,3,2.2,3,3.2,2
2018/8/23 0:31,2.1,3,2.1,3,2.7,2
2018/8/23 0:32,2.1,3,2.1,3,3.5,4
2018/8/23 0:33,2.1,3,2.1,2,3.9,3
2018/8/23 0:34,2.1,3,2.1,3,2.9,3
2018/8/23 0:35,2,3,2.1,3,2.5,3
2018/8/23 0:36,1.9,3,2,2,3,3
2018/8/23 0:37,1.9,3,2,2,3.5,3
2018/8/23 0:38,1.9,2,2,3,2.6,2
2018/8/23 0:39,1.9,2,2,3,2.4,2
2018/8/23 0:40,1.9,3,1.9,3,2.6,3
2018/8/23 0:41,1.8,3,1.9,3,2.7,4
2018/8/23 0:42,1.7,3,1.9,3,1.9,3
2018/8/23 0:43,1.5,3,1.7,3,1.9,3
2018/8/23 0:44,1.5,3,1.5,3,2.5,3
2018/8/23 0:45,1.5,3,1.5,3,2.1,3
2018/8/23 0:46,1.4,3,1.5,3,1.5,3
2018/8/23 0:47,1.3,2,1.4,2,1.5,3
2018/8/23 0:48,1.3,2,1.3,2,1.9,1
2018/8/23 0:49,1.2,2,1.3,2,2,2
2018/8/23 0:50,1.2,2,1.2,3,2.1,3
2018/8/23 0:51,1.1,2,1.2,3,2.1,3
2018/8/23 0:52,1.1,2,1.1,3,1.8,3
2018/8/23 0:53,1.1,2,1.1,3,1.1,1
2018/8/23 0:54,1.1,2,1.1,3,1.5,1
2018/8/23 0:55,1,1,1.1,3,1.5,3
2018/8/23 0:56,1,1,1,3,1.8,2
2018/8/23 0:57,1.1,1,1.1,2,2.9,3
2018/8/23 0:58,1.2,2,1.2,2,2.9,2
2018/8/23 0:59,1.3,2,1.3,2,3.1,3
2018/8/23 1:00,1.4,2,1.4,2,2.2,3
2018/8/23 1:01,1.3,2,1.3,2,1.5,2
2018/8/23 1:02,1.3,2,1.3,2,1.8,3
2018/8/23 1:03,1.4,2,1.4,2,2.1,3
2018/8/23 1:04,1.4,2,1.4,2,2,3
2018/8/23 1:05,1.4,2,1.4,2,1.4,3
2018/8/23 1:06,1.5,3,1.5,3,1.9,4
2018/8/23 1:07,1.4,3,1.5,3,2,4
2018/8/23 1:08,1.5,3,1.5,3,2.9,3
2018/8/23 1:09,1.4,2,1.4,3,3.5,4
2018/8/23 1:10,1.4,3,1.4,3,2.7,3
2018/8/23 1:11,1.5,3,1.5,3,2.5,3
2018/8/23 1:12,1.6,3,1.6,3,2.5,3
2018/8/23 1:13,1.6,3,1.7,3,2.7,4
2018/8/23 1:14,1.7,3,1.7,3,3,3
2018/8/23 1:15,1.8,3,1.8,3,2.5,3
2018/8/23 1:16,1.8,3,1.9,3,2.4,3
2018/8/23 1:17,1.8,3,1.8,3,1.5,2
2018/8/23 1:18,1.8,3,1.8,3,2.5,3
2018/8/23 1:19,1.7,3,1.8,3,2.4,3
2018/8/23 1:20,1.7,3,1.7,3,2.9,3
2018/8/23 1:21,1.7,3,1.8,3,2.9,4
2018/8/23 1:22,1.7,3,1.8,3,2.4,4
2018/8/23 1:23,1.7,3,1.7,3,3.1,3
2018/8/23 1:24,1.8,3,1.8,3,2.9,3
2018/8/23 1:25,1.8,3,1.8,3,3.3,3
2018/8/23 1:26,1.9,3,1.9,3,3.3,3
2018/8/23 1:27,2,3,2,3,3.6,4
2018/8/23 1:28,2.1,3,2.1,3,3.6,3
2018/8/23 1:29,2.2,3,2.2,3,4.4,4
2018/8/23 1:30,2.4,3,2.4,3,3.9,4
2018/8/23 1:31,2.5,3,2.5,3,3.8,4
2018/8/23 1:32,2.6,3,2.6,3,3.8,3
2018/8/23 1:33,2.6,3,2.6,3,3.1,5
2018/8/23 1:34,2.7,3,2.7,3,5.1,3
2018/8/23 1:35,2.8,3,2.8,3,4.3,3
2018/8/23 1:36,2.8,3,2.8,3,4.3,3
2018/8/23 1:37,2.8,3,2.8,3,4.8,5
2018/8/23 1:38,2.8,3,2.8,3,3.7,4
2018/8/23 1:39,2.7,3,2.8,3,3.2,4
2018/8/23 1:40,2.7,3,2.7,3,3.3,3
2018/8/23 1:41,2.6,3,2.6,3,2.7,3
2018/8/23 1:42,2.5,3,2.5,3,3.7,3
2018/8/23 1:43,2.6,3,2.6,3,3.9,3
2018/8/23 1:44,2.6,3,2.6,3,3.7,3
2018/8/23 1:45,2.5,3,2.6,3,3.6,4
2018/8/23 1:46,2.6,3,2.6,3,4.1,4
2018/8/23 1:47,2.5,3,2.6,3,3.5,4
2018/8/23 1:48,2.4,3,2.5,3,3.2,3
2018/8/23 1:49,2.3,3,2.4,3,2,3
2018/8/23 1:50,2.2,3,2.3,3,3,2
2018/8/23 1:51,2.3,3,2.3,3,3.7,3
2018/8/23 1:52,2.4,3,2.4,3,4.8,5
2018/8/23 1:53,2.3,3,2.4,3,3.6,5
2018/8/23 1:54,2.3,3,2.4,3,3.8,5
2018/8/23 1:55,2.2,3,2.3,3,2.5,5
2018/8/23 1:56,2,4,2.2,3,2.5,5
2018/8/23 1:57,2,4,2,3,1.9,6
2018/8/23 1:58,1.9,4,2,3,1.8,5
2018/8/23 1:59,1.9,4,1.9,3,1.4,5
2018/8/23 2:00,1.9,5,1.9,3,1.9,7
2018/8/23 2:01,1.7,5,1.8,3,2,6
2018/8/23 2:02,1.5,5,1.7,3,1.1,4
2018/8/23 2:03,1.3,5,1.5,3,1.6,7
2018/8/23 2:04,1.3,6,1.3,3,3,6
2018/8/23 2:05,1.3,5,1.3,3,2.7,5
2018/8/23 2:06,1.4,5,1.4,4,2.4,3
2018/8/23 2:07,1.3,5,1.4,4,1.8,3
2018/8/23 2:08,1.3,5,1.3,4,1.9,3
2018/8/23 2:09,1.4,5,1.4,5,2.2,3
2018/8/23 2:10,1.4,4,1.4,5,2.6,4
2018/8/23 2:11,1.5,4,1.5,5,2.7,3
2018/8/23 2:12,1.6,4,1.6,4,2.4,3
2018/8/23 2:13,1.7,4,1.7,4,2.7,3
2018/8/23 2:14,1.7,3,1.7,4,2.2,2
2018/8/23 2:15,1.6,3,1.7,4,1.8,2
2018/8/23 2:16,1.5,3,1.6,4,2.2,3
2018/8/23 2:17,1.6,3,1.6,4,2.4,3
2018/8/23 2:18,1.7,3,1.7,4,2.9,3
2018/8/23 2:19,1.7,3,1.7,4,2.5,3
2018/8/23 2:20,1.7,3,1.7,4,2.2,3
2018/8/23 2:21,1.6,3,1.7,4,2.2,3
2018/8/23 2:22,1.6,2,1.6,4,2.2,3
2018/8/23 2:23,1.6,2,1.6,4,2.5,3
2018/8/23 2:24,1.6,2,1.6,3,2.5,2
2018/8/23 2:25,1.7,2,1.7,3,2.4,2
2018/8/23 2:26,1.7,2,1.7,3,2.6,2
2018/8/23 2:27,1.8,2,1.8,2,3,3
2018/8/23 2:28,1.7,2,1.8,2,2.4,2
2018/8/23 2:29,1.7,2,1.7,2,2.4,4
2018/8/23 2:30,1.8,2,1.8,2,2.7,3
2018/8/23 2:31,1.8,2,1.8,2,3,4
2018/8/23 2:32,1.9,3,1.9,3,3.3,4
2018/8/23 2:33,2,3,2,3,3.8,4
2018/8/23 2:34,2.1,3,2.1,3,3.2,3
2018/8/23 2:35,2.2,3,2.2,3,3.2,4
2018/8/23 2:36,2.2,3,2.2,3,3,3
2018/8/23 2:37,2.2,3,2.2,3,2.5,2
2018/8/23 2:38,2.2,3,2.2,3,2.7,2
2018/8/23 2:39,2.2,3,2.2,3,2.9,3
2018/8/23 2:40,2.2,3,2.2,3,2.5,2
2018/8/23 2:41,2.2,3,2.2,3,3.1,3
2018/8/23 2:42,2.2,3,2.2,3,3.1,3
2018/8/23 2:43,2,2,2.2,3,2.5,3
2018/8/23 2:44,2,2,2,3,2.1,2
2018/8/23 2:45,1.9,2,1.9,3,2,3
2018/8/23 2:46,1.8,2,1.9,3,2.4,3
2018/8/23 2:47,1.8,2,1.8,3,2.7,3
2018/8/23 2:48,1.8,2,1.9,3,3,3
2018/8/23 2:49,1.8,2,1.8,3,2.7,3
2018/8/23 2:50,1.8,2,1.8,3,2.6,4
2018/8/23 2:51,1.7,2,1.8,3,2.5,4
2018/8/23 2:52,1.7,2,1.7,3,2.9,2
2018/8/23 2:53,1.7,2,1.7,2,2.5,3
2018/8/23 2:54,1.8,2,1.8,2,2.6,2
2018/8/23 2:55,1.8,2,1.8,2,3.2,3
2018/8/23 2:56,1.9,3,1.9,2,3,3
2018/8/23 2:57,1.9,3,1.9,2,4.2,3
2018/8/23 2:58,2,3,2,2,3.9,3
2018/8/23 2:59,2,3,2,2,3.8,3
2018/8/23 3:00,2,3,2,2,3.1,2
2018/8/23 3:01,2.1,3,2.1,3,3.2,2
2018/8/23 3:02,2.1,3,2.1,3,3.2,3
2018/8/23 3:03,2.2,3,2.2,3,2.9,2
2018/8/23 3:04,2.1,2,2.2,3,2.4,2
2018/8/23 3:05,2,2,2.1,3,2,3
2018/8/23 3:06,2,2,2,3,2.6,3
2018/8/23 3:07,1.9,2,2,3,2.4,3
2018/8/23 3:08,1.8,2,1.9,3,2.7,4
2018/8/23 3:09,1.8,2,1.8,3,2.5,3
2018/8/23 3:10,1.7,2,1.8,3,1.9,2
2018/8/23 3:11,1.6,2,1.7,3,2.2,2
2018/8/23 3:12,1.5,2,1.6,3,2,2
2018/8/23 3:13,1.5,2,1.5,3,2.1,1
2018/8/23 3:14,1.5,2,1.5,2,2.5,2
2018/8/23 3:15,1.4,2,1.5,2,2.6,2
2018/8/23 3:16,1.4,2,1.4,2,2.1,3
2018/8/23 3:17,1.4,2,1.4,2,3.2,2
2018/8/23 3:18,1.4,2,1.4,2,2.6,2
2018/8/23 3:19,1.5,2,1.5,2,3.6,3
2018/8/23 3:20,1.6,2,1.6,2,3.3,3
2018/8/23 3:21,1.7,2,1.7,2,3.8,4
2018/8/23 3:22,1.8,2,1.8,2,3.1,3
2018/8/23 3:23,1.8,2,1.8,2,2.9,3
2018/8/23 3:24,1.9,2,1.9,2,3.5,3
2018/8/23 3:25,2,2,2,2,3.2,1
2018/8/23 3:26,2,2,2,2,3.1,3
2018/8/23 3:27,2.1,2,2.1,2,3.3,3
2018/8/23 3:28,2,2,2.1,2,2.5,2
2018/8/23 3:29,2.1,2,2.1,2,4.1,3
2018/8/23 3:30,2.1,2,2.1,2,2.9,3
2018/8/23 3:31,2,2,2.1,2,3.5,3
2018/8/23 3:32,2,2,2,2,2.5,3
2018/8/23 3:33,2,2,2,2,3.1,4
2018/8/23 3:34,2,2,2,2,3,4
2018/8/23 3:35,2,2,2,2,3.3,2
2018/8/23 3:36,1.9,2,2,2,2.5,2
2018/8/23 3:37,1.9,2,1.9,2,1.8,2
2018/8/23 3:38,1.9,2,1.9,2,2.7,3
2018/8/23 3:39,1.8,2,1.9,2,3,3
2018/8/23 3:40,1.9,2,1.9,2,3.3,3
2018/8/23 3:41,1.8,2,1.9,2,2.4,2
2018/8/23 3:42,1.8,2,1.8,2,2.9,3
2018/8/23 3:43,1.7,2,1.8,2,2.2,2
2018/8/23 3:44,1.7,2,1.7,2,2.4,1
2018/8/23 3:45,1.7,2,1.7,2,3,2
2018/8/23 3:46,1.7,2,1.7,2,3,2
2018/8/23 3:47,1.7,2,1.7,2,2.2,3
2018/8/23 3:48,1.8,2,1.8,2,3.6,2
2018/8/23 3:49,1.8,2,1.8,2,4.3,3
2018/8/23 3:50,1.8,2,1.8,2,3.7,3
2018/8/23 3:51,1.8,2,1.9,2,2.9,2
2018/8/23 3:52,1.9,2,1.9,2,3.7,4
2018/8/23 3:53,1.9,2,1.9,2,3.3,1
2018/8/23 3:54,2.1,2,2.1,2,3.9,3
2018/8/23 3:55,2.2,2,2.2,2,4.2,3
2018/8/23 3:56,2.2,2,2.2,2,3.3,3
2018/8/23 3:57,2.3,2,2.3,2,3.9,3
2018/8/23 3:58,2.3,2,2.3,2,3.1,3
2018/8/23 3:59,2.3,2,2.3,2,3.6,3
2018/8/23 4:00,2.4,3,2.4,3,4.8,3
2018/8/23 4:01,2.5,3,2.5,3,4.2,3
2018/8/23 4:02,2.6,3,2.6,3,4.1,3
2018/8/23 4:03,2.6,3,2.6,3,4.2,3
2018/8/23 4:04,2.6,3,2.6,3,4.1,3
2018/8/23 4:05,2.6,2,2.6,3,3.8,2
2018/8/23 4:06,2.6,2,2.6,3,3.6,4
2018/8/23 4:07,2.5,2,2.6,3,3.1,2
2018/8/23 4:08,2.5,2,2.5,3,3.3,2
2018/8/23 4:09,2.5,2,2.5,3,3.3,16
2018/8/23 4:10,2.4,2,2.5,3,3.7,4
2018/8/23 4:11,2.4,2,2.5,3,4.3,2
2018/8/23 4:12,2.4,2,2.5,3,3.7,3
2018/8/23 4:13,2.3,2,2.4,3,3.5,3
2018/8/23 4:14,2.3,2,2.3,3,3.9,2
2018/8/23 4:15,2.2,2,2.3,2,3.2,3
2018/8/23 4:16,2.3,2,2.3,2,3.8,2
2018/8/23 4:17,2.4,2,2.4,2,3.8,3
2018/8/23 4:18,2.4,2,2.4,2,4.4,3
2018/8/23 4:19,2.5,2,2.5,2,4.2,3
2018/8/23 4:20,2.5,2,2.5,2,4.1,3
2018/8/23 4:21,2.4,2,2.5,2,4.3,3
2018/8/23 4:22,2.5,2,2.5,2,3.5,3
2018/8/23 4:23,2.5,2,2.5,2,3.1,4
2018/8/23 4:24,2.4,2,2.5,2,2.5,2
2018/8/23 4:25,2.4,2,2.4,2,3,2
2018/8/23 4:26,2.3,2,2.4,2,2.9,3
2018/8/23 4:27,2.2,3,2.3,2,3.8,3
2018/8/23 4:28,2.2,3,2.2,2,3.3,3
2018/8/23 4:29,2.1,2,2.2,2,3.1,2
2018/8/23 4:30,2.2,3,2.2,2,4.4,3
2018/8/23 4:31,2.2,3,2.2,2,3.8,3
2018/8/23 4:32,2.2,3,2.3,2,3.8,3
2018/8/23 4:33,2.2,3,2.2,2,3.2,4
2018/8/23 4:34,2.3,3,2.3,2,3.1,3
2018/8/23 4:35,2.3,3,2.4,2,3,2
2018/8/23 4:36,2.4,3,2.4,3,3.3,4
2018/8/23 4:37,2.4,3,2.4,3,3.7,2
2018/8/23 4:38,2.4,3,2.4,3,3.2,2
2018/8/23 4:39,2.4,3,2.5,3,3.2,3
2018/8/23 4:40,2.4,3,2.4,3,3.7,3
2018/8/23 4:41,2.3,3,2.4,3,3.2,3
2018/8/23 4:42,2.4,3,2.4,3,4.4,2
2018/8/23 4:43,2.4,3,2.4,3,3.6,3
2018/8/23 4:44,2.5,3,2.5,3,3.7,3
2018/8/23 4:45,2.5,3,2.5,3,3.5,2
2018/8/23 4:46,2.5,3,2.5,3,3.5,1
2018/8/23 4:47,2.4,2,2.5,3,3,1
2018/8/23 4:48,2.4,2,2.4,3,3.5,2
2018/8/23 4:49,2.3,2,2.4,3,3,1
2018/8/23 4:50,2.3,2,2.4,3,3.8,3
2018/8/23 4:51,2.3,2,2.3,3,2.5,2
2018/8/23 4:52,2.2,2,2.3,3,3.1,4
2018/8/23 4:53,2.1,2,2.2,3,3,3
2018/8/23 4:54,2,2,2.1,3,3.6,3
2018/8/23 4:55,2.1,2,2.1,3,3.7,2
2018/8/23 4:56,2.1,2,2.1,3,3,3
2018/8/23 4:57,2.1,2,2.1,2,3.2,3
2018/8/23 4:58,2.1,2,2.2,2,3.2,3
2018/8/23 4:59,2.2,3,2.3,2,4.2,3
2018/8/23 5:00,2.2,3,2.2,2,3.8,3
2018/8/23 5:01,2.3,2,2.3,2,3.7,3
2018/8/23 5:02,2.3,2,2.3,3,3.6,3
2018/8/23 5:03,2.4,2,2.4,2,3.7,3
2018/8/23 5:04,2.5,2,2.5,2,4.8,3
2018/8/23 5:05,2.5,2,2.5,2,3.8,3
2018/8/23 5:06,2.4,3,2.5,2,3,2
2018/8/23 5:07,2.4,2,2.5,2,2.9,2
2018/8/23 5:08,2.4,2,2.4,2,3,3
2018/8/23 5:09,2.3,2,2.4,2,3.1,3
2018/8/23 5:10,2.3,2,2.3,2,3,2
2018/8/23 5:11,2.2,2,2.3,2,2.7,2
2018/8/23 5:12,2.3,2,2.3,2,4.5,3
2018/8/23 5:13,2.3,2,2.3,2,3.8,3
2018/8/23 5:14,2.2,2,2.3,2,3.9,3
2018/8/23 5:15,2.1,2,2.2,2,2.5,3
2018/8/23 5:16,2.1,2,2.1,3,2,3
2018/8/23 5:17,2,2,2.1,2,2.4,3
2018/8/23 5:18,1.9,2,2,2,2.5,3
2018/8/23 5:19,1.9,2,1.9,2,2.2,3
2018/8/23 5:20,1.8,2,1.8,2,2.2,2
2018/8/23 5:21,1.8,2,1.8,2,2.7,3
2018/8/23 5:22,1.6,2,1.8,2,2.1,2
2018/8/23 5:23,1.5,2,1.6,2,1.5,2
2018/8/23 5:24,1.4,2,1.5,2,3.7,2
2018/8/23 5:25,1.5,2,1.5,2,3,3
2018/8/23 5:26,1.6,2,1.6,2,4.5,2
2018/8/23 5:27,1.7,2,1.7,2,2.9,1
2018/8/23 5:28,1.7,2,1.7,2,3.1,2
2018/8/23 5:29,1.9,2,1.9,2,4.2,3
2018/8/23 5:30,2,2,2,2,3.9,3
2018/8/23 5:31,2,2,2,2,3.3,3
2018/8/23 5:32,2.1,2,2.1,2,3.5,3
2018/8/23 5:33,2.2,2,2.2,2,3.1,3
2018/8/23 5:34,2.2,2,2.3,2,2.9,2
2018/8/23 5:35,2.2,2,2.2,2,3.2,3
2018/8/23 5:36,2.2,2,2.3,2,3.1,2
2018/8/23 5:37,2.2,3,2.2,2,3.3,4
2018/8/23 5:38,2.3,3,2.3,2,3.8,3
2018/8/23 5:39,2.3,3,2.3,2,3.2,3
2018/8/23 5:40,2.2,3,2.3,2,2.9,3
2018/8/23 5:41,2.2,3,2.2,2,3.1,2
2018/8/23 5:42,2.1,2,2.2,2,2.4,3
2018/8/23 5:43,2,2,2.1,2,2.2,3
2018/8/23 5:44,2,2,2,2,2.9,3
2018/8/23 5:45,2,2,2,2,2.9,4
2018/8/23 5:46,1.9,2,2,3,2.9,3
2018/8/23 5:47,1.9,2,1.9,3,3.2,3
2018/8/23 5:48,1.8,2,1.9,3,3,3
2018/8/23 5:49,1.7,2,1.8,3,2.6,3
2018/8/23 5:50,1.7,2,1.7,3,3,3
2018/8/23 5:51,1.8,2,1.8,3,2.9,3
2018/8/23 5:52,1.8,2,1.8,2,2.6,3
2018/8/23 5:53,1.9,2,1.9,2,3.3,3
2018/8/23 5:54,1.9,2,1.9,2,2.2,3
2018/8/23 5:55,1.8,2,1.9,2,2.5,3
2018/8/23 5:56,1.8,2,1.8,2,2.1,2
2018/8/23 5:57,1.8,2,1.8,2,2.5,2
2018/8/23 5:58,1.8,2,1.8,2,2.4,3
2018/8/23 5:59,1.8,2,1.8,2,2.5,3
2018/8/23 6:00,1.7,2,1.8,2,2.4,3
2018/8/23 6:01,1.7,2,1.7,2,3.1,4
2018/8/23 6:02,1.7,2,1.7,2,3.5,3
2018/8/23 6:03,1.8,2,1.8,2,3.3,3
2018/8/23 6:04,1.9,2,1.9,2,3.6,3
2018/8/23 6:05,1.9,2,1.9,2,3.5,3
2018/8/23 6:06,2,2,2,2,3.6,2
2018/8/23 6:07,2.2,2,2.2,2,3.2,2
2018/8/23 6:08,2.3,2,2.3,2,3.6,3
2018/8/23 6:09,2.3,2,2.3,2,3.6,3
2018/8/23 6:10,2.5,3,2.5,3,4.4,3
2018/8/23 6:11,2.6,3,2.6,3,3.9,4
2018/8/23 6:12,2.6,3,2.7,3,4.1,3
2018/8/23 6:13,2.7,3,2.7,3,4.2,3
2018/8/23 6:14,2.6,3,2.7,3,3.8,3
2018/8/23 6:15,2.6,3,2.7,3,3.7,3
2018/8/23 6:16,2.6,3,2.6,3,3,3
2018/8/23 6:17,2.6,3,2.6,3,3.3,2
2018/8/23 6:18,2.5,3,2.6,3,3.3,16
2018/8/23 6:19,2.6,3,2.7,3,3.9,3
2018/8/23 6:20,2.5,3,2.6,3,4.4,3
2018/8/23 6:21,2.5,3,2.5,3,3.6,3
2018/8/23 6:22,2.4,3,2.5,3,3.1,3
2018/8/23 6:23,2.4,3,2.5,3,3.5,3
2018/8/23 6:24,2.4,3,2.5,3,3,3
2018/8/23 6:25,2.3,3,2.4,3,2.1,2
2018/8/23 6:26,2.3,3,2.3,3,2.7,3
2018/8/23 6:27,2.2,2,2.3,3,1.9,3
2018/8/23 6:28,2.1,2,2.2,3,2,3
2018/8/23 6:29,2,2,2.1,3,2.4,3
2018/8/23 6:30,1.9,2,2,3,3.1,3
2018/8/23 6:31,1.9,2,1.9,3,3,3
2018/8/23 6:32,1.8,2,1.9,3,2.6,3
2018/8/23 6:33,1.9,3,1.9,3,3.9,3
2018/8/23 6:34,1.9,3,1.9,3,3.6,4
2018/8/23 6:35,1.8,3,1.9,3,1.9,3
2018/8/23 6:36,1.8,3,1.8,2,2.6,3
2018/8/23 6:37,1.8,3,1.8,2,2.7,4
2018/8/23 6:38,1.7,3,1.8,2,1.5,3
2018/8/23 6:39,1.8,3,1.8,2,3,3
2018/8/23 6:40,1.8,3,1.8,2,2.6,3
2018/8/23 6:41,1.7,3,1.8,2,3.1,3
2018/8/23 6:42,1.8,3,1.8,2,3.7,3
2018/8/23 6:43,1.7,3,1.8,3,2.7,4
2018/8/23 6:44,1.7,3,1.7,3,2.7,3
2018/8/23 6:45,1.8,3,1.8,3,2.5,4
2018/8/23 6:46,1.8,3,1.8,3,2.1,3
2018/8/23 6:47,1.8,3,1.8,3,2.5,3
2018/8/23 6:48,1.9,3,1.9,3,2.1,3
2018/8/23 6:49,1.9,3,1.9,3,1.9,3
2018/8/23 6:50,1.9,3,1.9,3,2.2,3
2018/8/23 6:51,1.8,3,1.9,3,1.8,4
2018/8/23 6:52,1.7,3,1.8,3,1.8,3
2018/8/23 6:53,1.6,3,1.7,3,1.6,4
2018/8/23 6:54,1.5,3,1.6,3,1.8,2
2018/8/23 6:55,1.5,3,1.5,3,2.6,3
2018/8/23 6:56,1.5,3,1.6,3,2.5,3
2018/8/23 6:57,1.5,3,1.5,3,1.9,3
2018/8/23 6:58,1.4,3,1.5,3,1.8,2
2018/8/23 6:59,1.4,3,1.4,3,1.9,1
2018/8/23 7:00,1.3,3,1.4,3,1.8,1
2018/8/23 7:01,1.3,3,1.4,3,1.9,3
2018/8/23 7:02,1.3,3,1.4,3,2,2
2018/8/23 7:03,1.4,3,1.4,3,1.8,3
2018/8/23 7:04,1.4,3,1.4,3,2,3
2018/8/23 7:05,1.3,2,1.4,3,2.2,3
2018/8/23 7:06,1.3,2,1.4,3,2.7,3
2018/8/23 7:07,1.3,2,1.3,3,2.2,3
2018/8/23 7:08,1.4,2,1.4,3,2.2,2
2018/8/23 7:09,1.4,3,1.4,3,2.6,3
2018/8/23 7:10,1.4,3,1.4,3,1.9,2
2018/8/23 7:11,1.4,3,1.4,3,2.4,2
2018/8/23 7:12,1.5,3,1.5,3,3.2,3
2018/8/23 7:13,1.6,3,1.6,3,3.7,3
2018/8/23 7:14,1.6,3,1.6,3,3,5
2018/8/23 7:15,1.7,3,1.7,3,2.9,5
2018/8/23 7:16,1.6,3,1.7,3,1.6,4
2018/8/23 7:17,1.6,3,1.6,3,2.2,2
2018/8/23 7:18,1.6,4,1.6,3,2.1,4
2018/8/23 7:19,1.6,4,1.6,3,1.8,3
2018/8/23 7:20,1.7,4,1.7,3,3.2,2
2018/8/23 7:21,1.7,4,1.7,3,3.5,4
2018/8/23 7:22,1.6,4,1.7,3,3.1,5
2018/8/23 7:23,1.7,4,1.7,3,3.7,4
2018/8/23 7:24,1.7,4,1.7,3,2.7,5
2018/8/23 7:25,1.9,4,1.9,4,4.9,5
2018/8/23 7:26,2.1,4,2.1,4,3.7,6
2018/8/23 7:27,2.1,4,2.2,4,3.6,3
2018/8/23 7:28,2.1,5,2.1,4,2.2,6
2018/8/23 7:29,2.1,5,2.1,4,3.5,5
2018/8/23 7:30,2.1,5,2.2,4,3,4
2018/8/23 7:31,2.2,5,2.2,4,3.3,5
2018/8/23 7:32,2.3,5,2.3,5,3.2,5
2018/8/23 7:33,2.2,5,2.2,5,3.3,2
2018/8/23 7:34,2.2,5,2.2,5,3.7,4
2018/8/23 7:35,2.2,5,2.2,5,4.8,4
2018/8/23 7:36,2.1,4,2.2,5,4.2,4
2018/8/23 7:37,2.2,4,2.2,5,4.2,4
2018/8/23 7:38,2.4,4,2.4,4,3.2,4
2018/8/23 7:39,2.4,4,2.4,4,4.3,4
2018/8/23 7:40,2.4,4,2.4,4,3.6,4
2018/8/23 7:41,2.5,4,2.5,4,4.1,5
2018/8/23 7:42,2.6,4,2.6,4,5.4,5
2018/8/23 7:43,2.8,4,2.8,4,5.6,4
2018/8/23 7:44,3,5,3,5,5.5,5
2018/8/23 7:45,3,5,3,5,4.3,5
2018/8/23 7:46,3,5,3,5,4.1,5
2018/8/23 7:47,3,5,3,5,3.7,5
2018/8/23 7:48,2.9,5,3,5,3.3,5
2018/8/23 7:49,2.9,5,2.9,5,2.7,5
2018/8/23 7:50,2.8,5,2.8,5,2.2,6
2018/8/23 7:51,2.7,5,2.7,5,2.2,5
2018/8/23 7:52,2.4,5,2.7,5,2.2,5
2018/8/23 7:53,2.3,5,2.4,5,3,8
2018/8/23 7:54,2.2,5,2.3,5,4.4,5
2018/8/23 7:55,2.1,5,2.2,5,4.2,5
2018/8/23 7:56,2.2,5,2.2,5,4.5,5
2018/8/23 7:57,2.1,5,2.2,5,4.5,6
2018/8/23 7:58,2.2,5,2.2,5,4.3,6
2018/8/23 7:59,2.3,5,2.3,5,4.1,5
2018/8/23 8:00,2.5,5,2.5,5,4.5,7
2018/8/23 8:01,2.7,6,2.7,5,4.4,7
2018/8/23 8:02,2.7,5,2.7,6,2.7,4
2018/8/23 8:03,2.8,5,2.8,5,4.7,5
2018/8/23 8:04,2.8,5,2.8,5,5.2,4
2018/8/23 8:05,2.9,5,2.9,5,5,5
2018/8/23 8:06,2.8,5,2.9,5,3.9,6
2018/8/23 8:07,2.8,5,2.9,5,4.7,6
2018/8/23 8:08,2.8,5,2.8,5,4.4,5
2018/8/23 8:09,2.8,5,2.8,5,3.8,5
2018/8/23 8:10,2.8,5,2.8,5,4.4,6
2018/8/23 8:11,2.7,5,2.8,5,3.6,6
2018/8/23 8:12,2.8,5,2.8,5,2.6,7
2018/8/23 8:13,2.6,5,2.8,5,2.7,8
2018/8/23 8:14,2.5,5,2.6,5,2.9,3
2018/8/23 8:15,2.3,5,2.4,5,2.7,4
2018/8/23 8:16,2.3,5,2.3,5,3,4
2018/8/23 8:17,2.3,5,2.3,5,3.2,2
2018/8/23 8:18,2.1,5,2.3,5,3,4
2018/8/23 8:19,1.9,5,2.1,5,1.3,6
2018/8/23 8:20,1.7,5,1.9,5,2.2,4
2018/8/23 8:21,1.7,5,1.7,5,3.7,6
2018/8/23 8:22,1.7,5,1.7,5,3.9,7
2018/8/23 8:23,1.8,5,1.8,5,3.1,6
2018/8/23 8:24,1.7,5,1.8,5,3.6,4
2018/8/23 8:25,1.7,5,1.7,5,3,3
2018/8/23 8:26,1.8,5,1.8,5,4.4,5
2018/8/23 8:27,1.8,5,1.8,5,2.7,5
2018/8/23 8:28,1.8,5,1.8,5,3.1,3
2018/8/23 8:29,1.9,5,1.9,5,3.1,5
2018/8/23 8:30,2,5,2,5,2.7,5
2018/8/23 8:31,2,5,2,5,3.7,4
2018/8/23 8:32,1.9,4,2,5,3.1,4
2018/8/23 8:33,1.9,4,1.9,5,4.3,4
2018/8/23 8:34,2,4,2,5,4.2,5
2018/8/23 8:35,2.1,5,2.1,4,4.1,6
2018/8/23 8:36,2.1,5,2.1,4,4.2,6
2018/8/23 8:37,2.4,5,2.4,5,6.7,6
2018/8/23 8:38,2.6,5,2.6,5,7,5
2018/8/23 8:39,2.8,5,2.8,5,5,7
2018/8/23 8:40,2.9,5,2.9,5,5,5
2018/8/23 8:41,2.8,5,2.9,5,3.6,4
2018/8/23 8:42,2.9,5,2.9,5,3.7,6
2018/8/23 8:43,3,5,3,5,4.3,7
2018/8/23 8:44,3,6,3.1,6,5,6
2018/8/23 8:45,3.1,6,3.1,6,4.4,6
2018/8/23 8:46,3,6,3.1,6,5.1,7
2018/8/23 8:47,3.1,6,3.1,6,8.7,7
2018/8/23 8:48,3.3,6,3.3,6,9,5
2018/8/23 8:49,3.5,6,3.5,6,8.2,5
2018/8/23 8:50,3.9,6,3.9,6,8.5,6
2018/8/23 8:51,4.4,6,4.4,6,10.5,6
2018/8/23 8:52,4.8,6,4.8,6,9.2,5
2018/8/23 8:53,5,6,5,6,8.6,5
2018/8/23 8:54,5.2,6,5.2,6,9.2,6
2018/8/23 8:55,5.4,6,5.4,6,8.1,6
2018/8/23 8:56,5.7,6,5.7,6,7.4,6
2018/8/23 8:57,5.6,6,5.8,6,6.7,6
2018/8/23 8:58,5.1,6,5.5,6,4.4,6
2018/8/23 8:59,4.8,6,5.1,6,3.5,9
2018/8/23 9:00,4.4,6,4.7,6,6.9,6
2018/8/23 9:01,4.1,6,4.4,6,7.9,2
2018/8/23 9:02,4,6,4.1,6,7.1,4
2018/8/23 9:03,3.8,6,4,6,4.7,5
2018/8/23 9:04,3.4,6,3.7,6,4.1,5
2018/8/23 9:05,3.5,5,3.5,6,6.1,4
2018/8/23 9:06,3.5,5,3.6,6,6.9,5
2018/8/23 9:07,3.4,5,3.5,6,4.7,5
2018/8/23 9:08,3.4,5,3.4,6,4.2,8
2018/8/23 9:09,3.6,5,3.6,6,5.1,6
2018/8/23 9:10,3.3,5,3.6,6,3.8,8
2018/8/23 9:11,3.2,5,3.3,6,4.9,8
2018/8/23 9:12,3.2,6,3.2,6,7,6
2018/8/23 9:13,3.2,6,3.2,6,7.7,6
2018/8/23 9:14,3.5,6,3.5,5,8.1,5
2018/8/23 9:15,3.6,6,3.6,5,7.6,6
2018/8/23 9:16,3.4,6,3.6,5,4.7,6
2018/8/23 9:17,3.6,6,3.6,5,7.6,5
2018/8/23 9:18,4,6,4,6,8.1,4
2018/8/23 9:19,4,6,4.1,6,7.7,5
2018/8/23 9:20,4.2,6,4.2,6,3.9,6
2018/8/23 9:21,4.4,6,4.4,6,5.8,7
2018/8/23 9:22,4.2,6,4.4,6,5.1,7
2018/8/23 9:23,3.9,6,4.1,6,3.6,8
2018/8/23 9:24,3.7,6,3.9,6,4.8,6
2018/8/23 9:25,3.5,6,3.6,6,4.9,5
2018/8/23 9:26,3.7,6,3.7,6,6.7,6
2018/8/23 9:27,3.6,6,3.7,6,5.7,6
2018/8/23 9:28,3.4,6,3.5,6,7.6,6
2018/8/23 9:29,3.4,6,3.4,6,8.3,7
2018/8/23 9:30,3.5,6,3.5,6,7.7,7
2018/8/23 9:31,3.4,7,3.5,6,5.4,6
2018/8/23 9:32,3.5,7,3.5,6,5.5,7
2018/8/23 9:33,3.7,7,3.7,6,6.9,8
2018/8/23 9:34,3.8,7,3.8,7,5.6,6
2018/8/23 9:35,3.8,7,3.9,7,6.7,6
2018/8/23 9:36,3.6,7,3.8,7,3.8,7
2018/8/23 9:37,3.5,7,3.6,7,4.8,7
2018/8/23 9:38,3.3,7,3.4,7,4.2,6
2018/8/23 9:39,3.2,7,3.3,7,4.3,6
2018/8/23 9:40,3.1,7,3.2,7,5.6,6
2018/8/23 9:41,3,7,3.1,7,4.1,6
2018/8/23 9:42,2.8,7,2.9,7,3.8,8
2018/8/23 9:43,2.8,7,2.8,7,7.5,7
2018/8/23 9:44,2.9,7,2.9,7,6.3,8
2018/8/23 9:45,2.9,7,2.9,7,6.5,7
2018/8/23 9:46,3,7,3,7,6.7,7
2018/8/23 9:47,2.8,7,3,7,2.9,6
2018/8/23 9:48,2.8,7,2.8,7,3.9,6
2018/8/23 9:49,2.8,7,2.8,7,4.2,7
2018/8/23 9:50,2.8,7,2.8,7,6.1,6
2018/8/23 9:51,3.1,7,3.1,7,7.2,5
2018/8/23 9:52,3.4,7,3.4,7,6.8,7
2018/8/23 9:53,3.4,7,3.4,7,5,5
2018/8/23 9:54,3.2,7,3.3,7,5.1,5
2018/8/23 9:55,3,7,3.2,7,5,7
2018/8/23 9:56,3.2,7,3.2,7,7.5,7
2018/8/23 9:57,3.5,7,3.5,7,8.2,7
2018/8/23 9:58,3.6,7,3.6,7,7.5,8
2018/8/23 9:59,3.8,7,3.8,7,7.5,8
2018/8/23 10:00,3.7,7,3.8,7,6.8,7
2018/8/23 10:01,3.5,7,3.7,7,4.3,6
2018/8/23 10:02,3.4,7,3.5,7,4.9,5
2018/8/23 10:03,3.4,7,3.4,7,6,5
2018/8/23 10:04,3.4,7,3.4,7,4.4,4
2018/8/23 10:05,3.6,7,3.6,7,5.4,5
2018/8/23 10:06,3.4,6,3.5,7,6,5
2018/8/23 10:07,3.3,6,3.4,7,5.2,6
2018/8/23 10:08,3.1,6,3.3,7,3.8,7
2018/8/23 10:09,3,6,3.1,7,5.4,8
2018/8/23 10:10,3,6,3.1,7,4.7,8
2018/8/23 10:11,3,6,3,7,3.9,6
2018/8/23 10:12,2.9,6,3,7,3.1,6
2018/8/23 10:13,2.8,6,2.9,7,4.2,8
2018/8/23 10:14,2.7,7,2.8,7,3.9,8
2018/8/23 10:15,2.7,7,2.7,7,5.1,8
2018/8/23 10:16,2.4,7,2.7,6,2.4,6
2018/8/23 10:17,2.2,7,2.4,6,1.8,7
2018/8/23 10:18,2.2,7,2.2,6,3.1,6
2018/8/23 10:19,2.2,7,2.3,6,5.2,7
2018/8/23 10:20,2.1,7,2.2,6,2.7,8
2018/8/23 10:21,2.2,7,2.2,6,3.7,6
2018/8/23 10:22,2.3,7,2.3,6,5.2,6
2018/8/23 10:23,2.2,7,2.3,6,3.2,4
2018/8/23 10:24,2.2,7,2.2,7,4.2,7
2018/8/23 10:25,2.1,7,2.1,7,4.4,7
2018/8/23 10:26,2.4,7,2.4,7,5.4,8
2018/8/23 10:27,2.6,7,2.6,7,5.8,7
2018/8/23 10:28,2.7,7,2.8,7,5.1,7
2018/8/23 10:29,2.6,7,2.7,7,3.6,9
2018/8/23 10:30,2.6,7,2.6,7,5.4,6
2018/8/23 10:31,2.7,7,2.7,7,5.4,6
2018/8/23 10:32,2.6,7,2.7,7,5.1,6
2018/8/23 10:33,2.8,7,2.8,7,5.8,6
2018/8/23 10:34,2.9,6,2.9,6,6.1,6
2018/8/23 10:35,3.1,6,3.1,6,5.8,6
2018/8/23 10:36,3,6,3.1,6,3.9,6
2018/8/23 10:37,3,6,3.1,6,4.3,6
2018/8/23 10:38,2.9,6,2.9,6,3.7,6
2018/8/23 10:39,2.9,6,2.9,6,3.7,7
2018/8/23 10:40,2.9,6,3,6,4.1,6
2018/8/23 10:41,2.9,6,3,6,5,6
2018/8/23 10:42,2.9,6,3,6,5.6,6
2018/8/23 10:43,2.9,6,3,6,4.9,5
2018/8/23 10:44,2.8,6,2.8,6,3.9,7
2018/8/23 10:45,2.7,6,2.7,6,6.4,7
2018/8/23 10:46,2.8,6,2.8,6,7.2,6
2018/8/23 10:47,2.7,6,2.8,6,3.8,7
2018/8/23 10:48,2.8,6,2.8,6,6.7,9
2018/8/23 10:49,3,6,3,6,6.9,6
2018/8/23 10:50,3,7,3.1,6,4.1,7
2018/8/23 10:51,2.9,7,3,6,3.5,6
2018/8/23 10:52,2.8,7,2.9,6,3.5,7
2018/8/23 10:53,2.7,7,2.8,6,4.8,8
2018/8/23 10:54,2.8,7,2.8,6,5.6,8
2018/8/23 10:55,2.8,7,2.9,6,5,8
2018/8/23 10:56,3,7,3,6,8.7,8
2018/8/23 10:57,3.2,7,3.2,7,6.8,8
2018/8/23 10:58,3.3,7,3.3,7,8.5,8
2018/8/23 10:59,3,7,3.2,7,4.8,6
2018/8/23 11:00,3.1,7,3.1,7,5.1,7
2018/8/23 11:01,3.2,7,3.2,7,4.3,5
2018/8/23 11:02,3.6,7,3.6,7,9.4,5
2018/8/23 11:03,4,7,4,7,9.3,4
2018/8/23 11:04,4.3,6,4.3,6,9.9,5
2018/8/23 11:05,4.6,6,4.6,6,9.2,6
2018/8/23 11:06,4.4,6,4.6,6,7.4,6
2018/8/23 11:07,4.3,6,4.4,6,8.6,6
2018/8/23 11:08,4.5,6,4.5,6,9,6
2018/8/23 11:09,4.6,6,4.6,6,8.7,6
2018/8/23 11:10,4.7,6,4.7,6,6.4,4
2018/8/23 11:11,4.7,6,4.8,6,5.6,6
2018/8/23 11:12,4.5,6,4.7,6,5.4,8
2018/8/23 11:13,4.3,6,4.5,6,7.9,7
2018/8/23 11:14,3.9,6,4.2,6,6.5,6
2018/8/23 11:15,3.7,7,3.9,6,7.4,5
2018/8/23 11:16,3.7,7,3.7,6,5,8
2018/8/23 11:17,3.7,7,3.7,6,5.8,6
2018/8/23 11:18,3.3,7,3.7,6,3,7
2018/8/23 11:19,3.1,7,3.3,6,2.5,9
2018/8/23 11:20,3,7,3.1,6,4.3,8
2018/8/23 11:21,2.9,7,3,6,6.4,8
2018/8/23 11:22,3,7,3.1,6,6.7,8
2018/8/23 11:23,2.9,7,3,6,4.1,6
2018/8/23 11:24,2.9,7,2.9,6,5.2,6
2018/8/23 11:25,2.9,7,2.9,6,5.5,5
2018/8/23 11:26,2.9,7,2.9,7,4.9,7
2018/8/23 11:27,2.9,7,2.9,7,5.7,7
2018/8/23 11:28,3.1,7,3.1,7,6.5,6
2018/8/23 11:29,3.3,6,3.3,7,5.6,5
2018/8/23 11:30,3.7,6,3.7,6,9.1,4
2018/8/23 11:31,4,6,4,6,10.5,5
2018/8/23 11:32,4.3,6,4.3,6,9.1,5
2018/8/23 11:33,4.7,5,4.7,5,9.7,5
2018/8/23 11:34,4.9,5,4.9,5,7.6,5
2018/8/23 11:35,5,5,5,5,7.4,5
2018/8/23 11:36,5.1,5,5.1,5,7.2,5
2018/8/23 11:37,5,5,5.1,5,7.5,4
2018/8/23 11:38,4.7,5,5,5,3.6,5
2018/8/23 11:39,4.7,5,4.7,5,4.5,6
2018/8/23 11:40,4.4,5,4.7,5,6.7,9
2018/8/23 11:41,4.2,6,4.4,5,6.9,7
2018/8/23 11:42,3.8,6,4.2,5,4.7,9
2018/8/23 11:43,3.6,6,3.7,5,7.6,6
2018/8/23 11:44,3.3,6,3.5,5,5.1,7
2018/8/23 11:45,3.1,7,3.3,5,5.7,7
2018/8/23 11:46,3.1,7,3.1,5,6.1,6
2018/8/23 11:47,3.2,7,3.2,5,6.8,6
2018/8/23 11:48,3.5,7,3.5,5,10.1,5